Wind_Speed
15 16 15 15 14 14 14 13 13 13 12 10 10 11 11 11 10 10 10 10 10 10 11 11 11 11 11 11 12 12 12 13 14 14 15 15 16 16 16 16 16 16 17
14 15 15 14 14 14 13 12 12 12 11 10 10 10 9 10 10 10 10 9 9 10 10 11 10 10 10 11 11 11 12 13 13 14 14 15 16 16 16 16 16 17 17
15 15 14 14 13 13 12 12 13 13 12 11 10 9 9 9 9 9 9 9 9 10 10 10 10 10 11 11 12 12 13 13 14 14 15 15 16 17 17 16 16 16 17
15 15 15 15 13 12 12 12 12 12 11 11 9 8 9 9 9 9 9 10 10 10 10 10 11 12 12 12 13 13 13 13 14 14 14 14 15 15 16 16 16 16 17
15 15 15 15 13 12 11 12 12 12 12 11 10 10 10 9 9 9 9 9 8 9 9 10 11 12 13 14 14 14 14 14 14 14 14 14 14 15 16 16 17 17 17
14 15 14 14 12 11 11 12 11 11 11 11 11 11 10 10 9 8 8 8 9 9 10 11 12 12 12 13 14 14 14 14 14 14 14 14 15 15 15 16 16 16 17
14 14 13 12 11 10 11 11 10 10 10 11 11 11 10 9 8 8 9 9 9 10 10 11 12 12 12 13 13 13 13 13 13 14 14 14 14 14 14 15 15 16 16
13 13 12 11 10 10 10 9 9 9 9 10 10 9 9 9 9 9 9 10 10 10 11 12 12 12 12 12 12 12 12 12 12 13 13 13 13 13 14 14 15 16 16
13 12 11 11 11 10 9 9 8 9 9 9 10 10 8 8 8 9 10 10 10 11 11 12 12 12 12 12 12 12 12 12 12 12 12 12 13 13 14 14 13 14 14
11 10 10 10 10 9 8 8 8 8 9 9 8 7 8 8 8 9 10 10 11 11 11 12 12 13 13 12 12 12 12 12 12 12 12 13 13 14 14 14 14 14 13
10 10 9 9 9 8 8 7 7 8 8 8 8 8 8 8 8 9 10 10 11 11 11 11 12 13 13 12 12 12 13 12 12 12 13 13 14 14 14 15 15 15 15
9 9 8 7 8 8 7 7 7 7 7 7 7 7 8 8 8 9 10 11 11 11 11 11 12 12 12 12 12 12 13 13 12 12 13 13 14 14 15 15 15 15 15
8 8 7 7 7 7 7 6 6 6 6 6 6 8 8 8 9 10 10 10 11 11 11 11 11 11 11 11 11 11 12 12 12 13 13 13 14 14 15 16 16 15 16
7 6 6 6 6 6 7 6 6 6 6 7 7 8 8 9 10 10 10 10 10 11 11 12 12 11 11 10 10 10 11 11 11 12 12 13 14 14 15 15 15 15 15
7 7 7 7 6 6 6 6 5 5 6 7 7 8 9 10 10 10 10 11 10 11 11 12 11 11 11 11 10 10 10 10 10 10 11 12 13 14 14 14 14 14 14
6 7 8 7 7 6 6 7 6 6 7 7 8 9 10 10 10 10 11 11 11 11 11 11 11 11 11 11 10 10 10 9 10 10 11 11 13 14 14 13 13 13 14
7 8 8 7 7 7 7 7 8 9 9 9 9 10 10 11 11 11 11 11 11 12 11 11 11 12 12 11 11 11 10 10 10 11 11 12 13 12 12 12 12 13 14
8 9 9 8 8 8 8 9 10 10 10 10 11 11 11 11 11 11 11 11 12 12 11 11 11 11 11 11 11 11 11 10 10 11 11 11 11 11 11 11 12 13 14
10 10 10 9 9 10 10 10 10 10 10 11 12 12 12 12 12 12 12 12 12 11 11 11 11 11 11 11 11 11 11 11 12 12 11 11 10 11 11 11 13 14 14
10 10 10 10 11 11 11 11 11 11 11 11 12 12 12 12 12 12 11 11 11 11 11 11 11 11 11 11 11 12 11 12 12 12 12 11 11 11 11 12 13 14 15
11 11 11 11 11 11 11 11 11 12 12 12 12 11 11 11 11 11 11 11 11 11 10 10 11 11 11 11 11 12 12 13 13 12 12 11 11 11 12 12 13 13 14
13 13 13 13 12 12 12 12 13 13 13 13 13 12 12 12 11 11 11 11 11 10 10 10 11 10 11 11 11 11 12 12 12 12 11 11 11 11 11 12 12 13 14
14 15 15 14 14 14 14 13 13 13 13 14 13 12 12 12 11 11 11 11 10 10 9 10 10 10 10 11 10 10 11 11 11 11 10 10 11 11 12 12 13 13 14
15 16 16 15 15 14 14 14 14 14 14 14 13 13 13 13 12 11 11 10 10 9 9 10 10 10 11 11 11 11 11 10 10 11 11 11 11 12 12 13 13 14 14
17 16 16 16 15 15 15 15 15 15 15 14 14 13 13 13 12 11 10 10 10 9 10 10 11 11 12 11 11 11 11 11 11 11 11 11 11 12 13 13 13 14 14
17 18 17 16 15 16 16 16 16 15 15 14 14 13 12 13 12 11 10 10 10 10 10 11 11 12 12 12 11 11 11 11 11 11 12 12 12 13 13 14 14 15 15
Wind_Direction
299 297 290 288 287 288 283 278 279 280 281 277 278 274 277 279 280 279 278 279 280 280 281 279 275 272 272 269 266 268 269 266 264 262 261 261 260 260 260 258 257 259 261
302 302 292 289 287 286 283 275 276 279 279 279 281 277 274 278 280 281 283 283 279 282 281 279 275 274 274 271 271 272 269 265 264 264 263 262 261 259 260 261 261 263 262
301 304 294 286 285 281 282 280 280 281 281 283 281 278 280 281 284 283 280 287 290 288 282 279 277 276 273 272 273 273 272 269 266 265 264 262 262 260 258 256 259 260 260
302 303 301 295 289 284 282 279 279 280 281 280 283 283 283 283 283 281 278 287 295 289 283 282 281 279 275 274 275 274 273 271 268 266 265 265 263 261 258 258 259 261 260
305 303 303 299 293 287 281 277 276 279 280 279 284 287 285 282 282 281 281 287 292 293 296 294 291 287 279 276 277 275 275 271 267 265 264 261 261 261 263 262 261 262 262
304 306 306 301 295 287 281 279 278 279 279 278 279 284 284 284 285 279 283 291 294 298 300 301 298 293 286 284 281 274 271 270 267 266 265 261 261 264 266 264 262 262 264
305 306 306 302 294 288 282 281 279 279 281 276 272 279 278 281 286 287 291 293 293 295 299 301 300 298 292 287 284 277 271 268 266 267 267 266 266 267 268 268 266 265 265
303 307 306 305 298 293 283 279 280 281 283 282 276 275 278 280 281 287 292 294 295 296 296 299 300 299 293 288 285 280 273 269 269 270 270 271 268 269 272 270 267 267 266
300 305 304 304 303 299 289 275 281 287 288 286 281 275 273 276 282 289 297 300 300 298 296 297 297 297 295 289 283 281 275 272 270 271 272 271 271 272 273 272 269 268 267
300 304 304 303 303 303 300 290 287 290 293 293 278 269 273 276 281 291 299 304 301 298 296 295 295 296 296 291 284 280 276 273 270 270 271 271 273 275 276 275 272 271 268
300 301 305 305 303 306 302 291 289 298 299 292 286 289 288 283 289 295 298 303 302 300 299 297 297 297 297 292 285 278 276 275 273 272 273 273 274 277 278 277 274 270 268
300 302 304 304 303 302 304 299 297 306 305 302 300 296 301 294 297 298 300 302 302 301 300 300 301 301 299 296 289 283 277 274 272 273 274 275 277 278 279 278 277 272 270
301 302 303 305 305 301 304 305 302 304 306 306 305 306 306 298 298 299 301 302 303 301 299 300 302 302 298 295 292 290 282 276 273 273 273 276 279 281 281 280 277 272 271
298 298 302 312 312 303 301 302 298 299 305 304 304 307 309 305 302 300 301 301 302 302 299 299 301 302 301 298 294 290 288 283 279 275 276 278 279 282 285 283 280 275 273
284 290 297 304 307 305 302 304 300 305 306 303 302 304 309 311 307 304 301 300 300 304 301 299 300 299 297 296 295 292 291 287 283 283 283 282 281 284 286 285 281 276 276
277 283 290 296 299 299 298 301 304 308 305 299 296 301 310 311 307 303 301 301 303 303 303 300 298 297 299 298 295 293 291 287 286 287 288 288 288 288 288 288 285 280 281
274 282 285 288 289 291 290 293 296 298 297 294 296 302 307 305 305 305 305 303 304 304 303 301 298 296 296 295 293 293 293 290 290 291 291 290 293 292 289 287 287 287 287
269 276 279 279 282 288 290 292 295 295 295 294 295 299 302 303 305 306 306 303 303 303 300 297 298 297 295 292 293 294 292 290 294 294 294 296 296 293 290 286 288 293 294
270 274 275 278 281 287 290 292 295 299 299 297 295 296 297 301 303 302 303 304 302 300 299 296 294 294 295 293 293 294 291 294 297 297 296 298 296 294 291 290 290 292 294
266 269 268 273 279 286 290 291 294 297 300 300 298 295 296 300 302 302 302 304 303 300 298 296 294 292 293 293 293 295 292 295 297 295 292 292 293 293 292 292 292 295 298
267 269 266 270 278 282 285 290 294 296 299 300 301 300 296 297 300 301 301 301 301 299 298 298 297 294 293 293 295 297 294 293 295 293 289 287 289 292 294 294 294 297 300
266 267 270 272 274 279 284 289 292 296 297 296 297 298 296 296 297 298 300 299 298 295 296 297 299 299 297 295 297 299 297 293 296 294 290 287 289 292 294 297 298 299 302
267 266 270 275 277 280 282 284 289 294 296 293 291 293 294 297 297 297 299 299 298 293 292 293 296 299 302 302 301 298 301 298 298 297 294 289 290 293 295 296 298 301 305
266 267 268 270 273 275 277 279 284 289 294 296 292 292 293 295 296 295 297 298 299 297 295 292 294 298 300 301 298 297 300 301 299 296 295 294 294 296 298 299 302 303 304
265 266 267 267 270 274 277 279 281 285 290 294 295 294 294 294 296 293 294 295 296 297 296 294 294 299 302 299 298 302 299 298 297 295 293 293 293 295 299 302 303 304 306
261 263 266 265 269 273 275 277 280 281 284 288 291 291 290 291 293 290 289 289 292 294 292 295 296 295 298 299 299 301 300 299 299 299 297 291 292 294 297 300 302 305 307
Height
5841 5839 5837 5835 5834 5834 5833 5833 5833 5833 5832 5832 5832 5832 5832 5831 5831 5830 5829 5828 5827 5827 5826 5826 5825 5824 5824 5824 5824 5824 5824 5824 5823 5824 5824 5824 5824 5824 5824 5825 5825 5825 5825
5837 5835 5833 5832 5831 5831 5830 5830 5829 5829 5829 5829 5828 5828 5828 5828 5828 5827 5826 5825 5824 5824 5823 5822 5822 5821 5821 5821 5820 5820 5820 5820 5820 5820 5820 5819 5820 5819 5820 5820 5820 5820 5820
5834 5832 5831 5829 5828 5827 5827 5826 5826 5825 5825 5825 5825 5825 5825 5824 5824 5824 5823 5822 5821 5821 5820 5819 5818 5818 5818 5817 5817 5817 5816 5816 5816 5816 5816 5815 5815 5815 5816 5815 5816 5816 5816
5830 5829 5827 5826 5825 5824 5823 5822 5822 5821 5822 5821 5821 5822 5822 5822 5821 5821 5820 5819 5818 5818 5817 5816 5816 5815 5814 5814 5813 5813 5812 5812 5811 5811 5811 5811 5811 5811 5811 5811 5811 5811 5811
5826 5825 5824 5822 5821 5820 5819 5819 5818 5818 5818 5818 5818 5818 5818 5819 5818 5818 5817 5816 5815 5815 5814 5813 5812 5811 5811 5809 5809 5808 5808 5807 5807 5807 5807 5806 5806 5806 5806 5806 5806 5806 5806
5823 5821 5820 5818 5817 5817 5816 5815 5815 5815 5815 5815 5815 5815 5815 5815 5815 5815 5814 5813 5812 5812 5811 5810 5809 5807 5806 5805 5804 5804 5803 5803 5803 5802 5802 5802 5802 5802 5801 5801 5801 5801 5801
5820 5818 5817 5816 5815 5814 5812 5812 5812 5812 5812 5812 5812 5812 5812 5812 5812 5812 5811 5810 5810 5809 5808 5806 5805 5804 5802 5801 5800 5799 5799 5798 5798 5798 5798 5797 5797 5797 5797 5796 5796 5796 5796
5817 5815 5814 5813 5812 5810 5809 5809 5809 5809 5809 5809 5809 5809 5809 5809 5809 5808 5808 5807 5806 5805 5804 5803 5802 5800 5798 5797 5796 5795 5795 5794 5794 5794 5793 5793 5793 5793 5792 5792 5792 5791 5791
5813 5812 5811 5810 5809 5808 5807 5807 5807 5807 5807 5807 5807 5806 5806 5806 5806 5805 5804 5803 5802 5801 5800 5799 5798 5796 5795 5793 5792 5791 5790 5790 5790 5790 5789 5789 5789 5788 5788 5787 5787 5787 5786
5810 5809 5809 5808 5807 5806 5805 5805 5805 5805 5804 5804 5804 5804 5803 5803 5803 5802 5801 5800 5799 5797 5796 5795 5794 5792 5791 5789 5788 5787 5786 5786 5785 5785 5785 5785 5784 5784 5783 5783 5782 5781 5781
5808 5807 5806 5805 5805 5804 5804 5803 5803 5802 5802 5802 5802 5801 5801 5800 5800 5799 5798 5796 5795 5794 5793 5791 5790 5788 5786 5785 5783 5782 5782 5781 5781 5780 5780 5780 5779 5779 5779 5778 5777 5777 5776
5806 5805 5804 5803 5803 5802 5802 5801 5801 5800 5800 5799 5799 5798 5797 5797 5796 5796 5794 5793 5792 5790 5789 5787 5786 5784 5782 5780 5779 5778 5777 5777 5776 5776 5776 5775 5775 5775 5774 5773 5772 5772 5771
5804 5803 5802 5802 5801 5800 5800 5799 5799 5798 5798 5797 5797 5797 5795 5795 5794 5792 5791 5790 5788 5787 5785 5784 5782 5781 5779 5777 5776 5774 5773 5772 5772 5771 5771 5771 5770 5770 5769 5768 5767 5766 5766
5801 5801 5801 5800 5799 5798 5798 5797 5797 5796 5796 5796 5795 5794 5793 5792 5791 5789 5788 5786 5785 5783 5782 5780 5779 5777 5775 5774 5772 5771 5769 5768 5767 5767 5767 5766 5766 5765 5764 5763 5762 5761 5761
5799 5799 5799 5799 5798 5797 5796 5795 5795 5794 5794 5793 5793 5792 5790 5789 5787 5786 5784 5783 5781 5780 5778 5777 5775 5774 5772 5770 5769 5767 5766 5765 5764 5763 5762 5762 5761 5760 5759 5758 5757 5757 5756
5797 5797 5797 5797 5796 5795 5794 5793 5793 5792 5792 5791 5790 5789 5787 5786 5784 5783 5781 5780 5778 5776 5775 5773 5772 5771 5769 5767 5766 5764 5763 5762 5761 5760 5759 5758 5757 5756 5755 5754 5753 5752 5752
5795 5795 5795 5794 5794 5793 5793 5792 5791 5790 5789 5788 5787 5786 5784 5783 5781 5779 5778 5776 5775 5773 5772 5770 5769 5767 5766 5764 5763 5761 5760 5759 5758 5757 5755 5754 5753 5752 5751 5750 5749 5748 5747
5793 5793 5792 5792 5792 5791 5790 5789 5788 5787 5786 5785 5784 5783 5781 5779 5778 5776 5774 5773 5771 5770 5768 5767 5765 5764 5762 5761 5760 5758 5757 5756 5754 5753 5752 5750 5749 5748 5747 5746 5745 5744 5742
5790 5789 5789 5789 5788 5788 5787 5786 5785 5784 5783 5782 5780 5779 5777 5776 5774 5773 5771 5769 5767 5766 5764 5763 5762 5761 5759 5757 5756 5755 5753 5752 5751 5750 5748 5747 5746 5745 5743 5742 5741 5740 5738
5786 5786 5786 5786 5785 5784 5784 5783 5782 5781 5780 5778 5777 5775 5773 5772 5770 5769 5767 5765 5763 5762 5761 5760 5759 5757 5756 5754 5752 5751 5749 5748 5748 5746 5745 5744 5743 5741 5740 5739 5737 5735 5733
5783 5783 5782 5782 5782 5781 5780 5780 5779 5778 5776 5775 5773 5771 5770 5768 5767 5765 5763 5762 5761 5759 5758 5756 5755 5754 5752 5750 5749 5747 5746 5745 5744 5742 5741 5740 5739 5738 5736 5735 5733 5731 5729
5779 5779 5778 5778 5778 5777 5777 5776 5775 5774 5772 5771 5770 5768 5766 5765 5763 5762 5760 5759 5757 5756 5755 5753 5752 5750 5748 5747 5745 5744 5742 5741 5739 5738 5737 5736 5735 5734 5732 5731 5729 5727 5725
5775 5775 5775 5774 5774 5774 5773 5772 5771 5770 5769 5767 5766 5764 5763 5762 5760 5759 5757 5756 5754 5753 5752 5751 5749 5748 5745 5743 5742 5740 5739 5737 5736 5735 5733 5732 5731 5730 5729 5727 5725 5723 5721
5770 5770 5770 5770 5770 5769 5768 5768 5767 5766 5765 5763 5761 5760 5759 5758 5757 5755 5754 5752 5751 5750 5749 5748 5746 5745 5743 5741 5739 5737 5736 5734 5732 5731 5730 5729 5727 5726 5725 5723 5721 5719 5717
5765 5765 5765 5765 5765 5765 5764 5763 5763 5762 5760 5759 5758 5757 5756 5754 5753 5752 5751 5750 5748 5747 5746 5745 5743 5742 5740 5738 5736 5734 5733 5731 5729 5728 5726 5725 5724 5723 5721 5719 5717 5715 5713
5759 5759 5760 5760 5760 5760 5759 5759 5758 5757 5756 5755 5754 5753 5752 5751 5750 5748 5748 5747 5746 5745 5743 5742 5740 5739 5737 5735 5733 5732 5730 5728 5726 5725 5723 5721 5720 5719 5717 5716 5714 5711 5709